Time,TemperatureF,DewpointF,PressureIn,WindDirection,WindDirectionDegrees,WindSpeedMPH,WindSpeedGustMPH,Humidity,HourlyPrecipIn,Conditions,Clouds,dailyrainin,SoftwareType,DateUTC
2013-04-14 00:00:00,60.8,33.4,30.00,WSW,247,0.0,0.0,36,0.00,,,0.00,WUHU21523XXSP,2013-04-14 04:00:00,
2013-04-14 00:10:00,60.4,33.1,30.00,SW,225,0.0,0.0,36,0.00,,,0.00,WUHU21523XXSP,2013-04-14 04:10:00,
2013-04-14 00:15:00,60.4,33.8,30.00,SW,225,0.0,0.0,37,0.00,,,0.00,WUHU21523XXSP,2013-04-14 04:15:00,
2013-04-14 00:20:00,60.3,33.0,30.01,WSW,247,0.0,0.0,36,0.00,,,0.00,WUHU21523XXSP,2013-04-14 04:20:00,
2013-04-14 00:25:00,60.3,33.0,30.00,WSW,247,0.0,0.0,36,0.00,,,0.00,WUHU21523XXSP,2013-04-14 04:25:00,
2013-04-14 00:30:00,60.1,33.5,30.01,WSW,247,0.0,0.0,37,0.00,,,0.00,WUHU21523XXSP,2013-04-14 04:30:00,
2013-04-14 00:35:00,59.9,34.1,30.01,WSW,247,0.0,0.0,38,0.00,,,0.00,WUHU21523XXSP,2013-04-14 04:35:00,
2013-04-14 00:40:00,59.7,33.9,30.01,SW,225,0.7,0.7,38,0.00,,,0.00,WUHU21523XXSP,2013-04-14 04:40:00,
2013-04-14 00:45:00,59.5,33.8,30.01,West,270,0.0,0.7,38,0.00,,,0.00,WUHU21523XXSP,2013-04-14 04:45:00,
2013-04-14 00:50:00,59.2,34.1,30.01,SW,225,0.0,0.0,39,0.00,,,0.00,WUHU21523XXSP,2013-04-14 04:50:00,
2013-04-14 00:55:00,59.0,34.0,30.01,SW,225,0.0,0.0,39,0.00,,,0.00,WUHU21523XXSP,2013-04-14 04:55:00,
2013-04-14 01:00:00,58.8,33.8,30.01,SW,225,0.0,0.0,39,0.00,,,0.00,WUHU21523XXSP,2013-04-14 05:00:00,
2013-04-14 01:05:00,58.8,34.5,30.01,SW,225,0.0,0.0,40,0.00,,,0.00,WUHU21523XXSP,2013-04-14 05:05:00,
2013-04-14 01:10:00,58.6,34.4,30.01,SW,225,0.0,0.0,40,0.00,,,0.00,WUHU21523XXSP,2013-04-14 05:10:00,
2013-04-14 01:15:00,58.5,34.2,30.01,South,180,0.0,0.0,40,0.00,,,0.00,WUHU21523XXSP,2013-04-14 05:15:00,
2013-04-14 01:20:00,58.1,34.5,30.01,South,180,0.0,0.0,41,0.00,,,0.00,WUHU21523XXSP,2013-04-14 05:20:00,
2013-04-14 01:25:00,57.9,34.9,30.01,South,180,0.0,0.0,42,0.00,,,0.00,WUHU21523XXSP,2013-04-14 05:25:00,
2013-04-14 01:30:00,57.9,34.9,30.01,South,180,0.0,0.0,42,0.00,,,0.00,WUHU21523XXSP,2013-04-14 05:30:00,
2013-04-14 01:35:00,57.7,34.7,30.01,South,180,0.0,0.0,42,0.00,,,0.00,WUHU21523XXSP,2013-04-14 05:35:00,
2013-04-14 01:40:00,57.6,34.6,30.01,South,180,0.0,0.0,42,0.00,,,0.00,WUHU21523XXSP,2013-04-14 05:40:00,
2013-04-14 01:45:00,57.4,35.0,30.02,South,180,0.0,0.0,43,0.00,,,0.00,WUHU21523XXSP,2013-04-14 05:45:00,
2013-04-14 01:50:00,57.0,34.6,30.01,South,180,0.0,0.0,43,0.00,,,0.00,WUHU21523XXSP,2013-04-14 05:50:00,
2013-04-14 01:55:00,57.0,35.2,30.02,South,180,0.0,0.0,44,0.00,,,0.00,WUHU21523XXSP,2013-04-14 05:55:00,
2013-04-14 02:00:00,56.8,35.0,30.02,South,180,0.0,0.0,44,0.00,,,0.00,WUHU21523XXSP,2013-04-14 06:00:00,
2013-04-14 02:05:00,56.7,34.9,30.02,South,180,0.0,0.0,44,0.00,,,0.00,WUHU21523XXSP,2013-04-14 06:05:00,
2013-04-14 02:15:00,56.3,35.1,30.02,South,180,0.0,0.0,45,0.00,,,0.00,WUHU21523XXSP,2013-04-14 06:15:00,
2013-04-14 02:20:00,56.1,34.9,30.02,SSW,202,0.0,0.0,45,0.00,,,0.00,WUHU21523XXSP,2013-04-14 06:20:00,
2013-04-14 02:25:00,55.9,34.8,30.02,SSW,202,0.0,0.0,45,0.00,,,0.00,WUHU21523XXSP,2013-04-14 06:25:00,
2013-04-14 02:30:00,55.9,34.8,30.01,SSW,202,0.0,0.0,45,0.00,,,0.00,WUHU21523XXSP,2013-04-14 06:30:00,
2013-04-14 02:35:00,55.9,35.3,30.02,SSW,202,0.0,0.0,46,0.00,,,0.00,WUHU21523XXSP,2013-04-14 06:35:00,
2013-04-14 02:45:00,55.8,35.1,30.02,SSW,202,0.0,0.0,46,0.00,,,0.00,WUHU21523XXSP,2013-04-14 06:45:00,
2013-04-14 02:50:00,55.6,35.0,30.02,SSW,202,0.0,0.0,46,0.00,,,0.00,WUHU21523XXSP,2013-04-14 06:50:00,
2013-04-14 02:55:00,55.6,35.0,30.02,SSW,202,0.0,0.0,46,0.00,,,0.00,WUHU21523XXSP,2013-04-14 06:55:00,
2013-04-14 03:05:00,55.2,35.2,30.01,SSW,202,0.0,0.0,47,0.00,,,0.00,WUHU21523XXSP,2013-04-14 07:05:00,
2013-04-14 03:10:00,55.2,35.2,30.01,SSW,202,0.0,0.0,47,0.00,,,0.00,WUHU21523XXSP,2013-04-14 07:10:00,
2013-04-14 03:15:00,55.2,35.8,30.01,SSW,202,0.0,0.0,48,0.00,,,0.00,WUHU21523XXSP,2013-04-14 07:15:00,
2013-04-14 03:20:00,55.0,35.6,30.01,SSW,202,0.0,0.0,48,0.00,,,0.00,WUHU21523XXSP,2013-04-14 07:20:00,
2013-04-14 03:30:00,54.7,35.8,30.02,SSW,202,0.0,0.0,49,0.00,,,0.00,WUHU21523XXSP,2013-04-14 07:30:00,
2013-04-14 03:35:00,54.5,35.7,30.02,SSW,202,0.0,0.0,49,0.00,,,0.00,WUHU21523XXSP,2013-04-14 07:35:00,
2013-04-14 03:40:00,54.3,35.5,30.02,SSW,202,0.0,0.0,49,0.00,,,0.00,WUHU21523XXSP,2013-04-14 07:40:00,
2013-04-14 03:45:00,54.1,35.3,30.02,SSW,202,0.0,0.0,49,0.00,,,0.00,WUHU21523XXSP,2013-04-14 07:45:00,
2013-04-14 03:50:00,54.0,35.7,30.02,SW,225,0.0,0.0,50,0.00,,,0.00,WUHU21523XXSP,2013-04-14 07:50:00,
2013-04-14 03:55:00,53.8,35.6,30.02,SW,225,0.0,0.0,50,0.00,,,0.00,WUHU21523XXSP,2013-04-14 07:55:00,
2013-04-14 04:05:00,53.4,35.7,30.02,SW,225,0.0,0.0,51,0.00,,,0.00,WUHU21523XXSP,2013-04-14 08:05:00,
2013-04-14 04:10:00,53.4,35.7,30.02,SW,225,0.0,0.0,51,0.00,,,0.00,WUHU21523XXSP,2013-04-14 08:10:00,
2013-04-14 04:20:00,53.2,36.0,30.04,SW,225,0.0,0.0,52,0.00,,,0.00,WUHU21523XXSP,2013-04-14 08:20:00,
2013-04-14 04:30:00,52.9,35.7,30.04,SW,225,0.0,0.0,52,0.00,,,0.00,WUHU21523XXSP,2013-04-14 08:30:00,
2013-04-14 04:35:00,52.7,35.5,30.04,SW,225,0.0,0.0,52,0.00,,,0.00,WUHU21523XXSP,2013-04-14 08:35:00,
2013-04-14 04:40:00,52.5,35.8,30.04,SW,225,0.0,0.0,53,0.00,,,0.00,WUHU21523XXSP,2013-04-14 08:40:00,
2013-04-14 04:45:00,52.5,35.8,30.04,SW,225,0.0,0.0,53,0.00,,,0.00,WUHU21523XXSP,2013-04-14 08:45:00,
2013-04-14 04:50:00,52.3,35.6,30.04,SW,225,0.0,0.0,53,0.00,,,0.00,WUHU21523XXSP,2013-04-14 08:50:00,
2013-04-14 04:55:00,52.3,36.1,30.04,SW,225,0.0,0.0,54,0.00,,,0.00,WUHU21523XXSP,2013-04-14 08:55:00,
2013-04-14 05:05:00,51.8,35.6,30.05,SSW,202,0.0,0.0,54,0.00,,,0.00,WUHU21523XXSP,2013-04-14 09:05:00,
2013-04-14 05:10:00,51.6,35.9,30.05,SSW,202,0.0,0.0,55,0.00,,,0.00,WUHU21523XXSP,2013-04-14 09:10:00,
2013-04-14 05:15:00,51.6,35.9,30.05,SSW,202,0.0,0.0,55,0.00,,,0.00,WUHU21523XXSP,2013-04-14 09:15:00,
2013-04-14 05:20:00,51.4,35.7,30.06,SSW,202,0.0,0.0,55,0.00,,,0.00,WUHU21523XXSP,2013-04-14 09:20:00,
2013-04-14 05:30:00,51.4,35.7,30.05,SSW,202,0.0,0.0,55,0.00,,,0.00,WUHU21523XXSP,2013-04-14 09:30:00,
2013-04-14 05:35:00,51.4,35.7,30.05,SSW,202,0.0,0.0,55,0.00,,,0.00,WUHU21523XXSP,2013-04-14 09:35:00,
2013-04-14 05:40:00,51.4,35.7,30.05,SSW,202,0.0,0.0,55,0.00,,,0.00,WUHU21523XXSP,2013-04-14 09:40:00,
2013-04-14 05:50:00,51.3,36.0,30.05,SSW,202,0.0,0.0,56,0.00,,,0.00,WUHU21523XXSP,2013-04-14 09:50:00,
2013-04-14 05:55:00,51.1,36.0,30.05,SSW,202,0.0,0.0,56,0.00,,,0.00,WUHU21523XXSP,2013-04-14 09:55:00,
2013-04-14 06:05:00,50.9,35.7,30.05,SSW,202,0.0,0.0,56,0.00,,,0.00,WUHU21523XXSP,2013-04-14 10:05:00,
2013-04-14 06:10:00,50.7,35.5,30.05,SSW,202,0.0,0.0,56,0.00,,,0.00,WUHU21523XXSP,2013-04-14 10:10:00,
2013-04-14 06:15:00,50.7,36.0,30.05,SSW,202,0.0,0.0,57,0.00,,,0.00,WUHU21523XXSP,2013-04-14 10:15:00,
2013-04-14 06:20:00,50.5,36.3,30.06,SSW,202,0.0,0.0,58,0.00,,,0.00,WUHU21523XXSP,2013-04-14 10:20:00,
2013-04-14 06:25:00,50.4,36.1,30.06,SSW,202,0.0,0.0,58,0.00,,,0.00,WUHU21523XXSP,2013-04-14 10:25:00,
2013-04-14 06:30:00,50.4,36.6,30.06,SSW,202,0.0,0.0,59,0.00,,,0.00,WUHU21523XXSP,2013-04-14 10:30:00,
2013-04-14 06:35:00,50.2,36.4,30.06,SSW,202,0.0,0.0,59,0.00,,,0.00,WUHU21523XXSP,2013-04-14 10:35:00,
2013-04-14 06:40:00,50.2,36.4,30.07,SSW,202,0.0,0.0,59,0.00,,,0.00,WUHU21523XXSP,2013-04-14 10:40:00,
2013-04-14 06:45:00,50.2,36.4,30.07,SSW,202,0.0,0.0,59,0.00,,,0.00,WUHU21523XXSP,2013-04-14 10:45:00,
2013-04-14 06:50:00,49.8,36.0,30.07,SSW,202,0.0,0.0,59,0.00,,,0.00,WUHU21523XXSP,2013-04-14 10:50:00,
2013-04-14 07:00:00,49.8,36.5,30.07,SSW,202,0.0,0.0,60,0.00,,,0.00,WUHU21523XXSP,2013-04-14 11:00:00,
2013-04-14 07:05:00,49.6,36.4,30.08,SSW,202,0.0,0.0,60,0.00,,,0.00,WUHU21523XXSP,2013-04-14 11:05:00,
2013-04-14 07:10:00,49.8,36.5,30.07,SSW,202,0.0,0.0,60,0.00,,,0.00,WUHU21523XXSP,2013-04-14 11:10:00,
2013-04-14 07:20:00,49.6,36.7,30.08,SSW,202,0.0,0.0,61,0.00,,,0.00,WUHU21523XXSP,2013-04-14 11:20:00,
2013-04-14 07:25:00,49.6,36.7,30.09,SSW,202,0.0,0.0,61,0.00,,,0.00,WUHU21523XXSP,2013-04-14 11:25:00,
2013-04-14 07:30:00,49.6,36.7,30.09,SSW,202,0.0,0.0,61,0.00,,,0.00,WUHU21523XXSP,2013-04-14 11:30:00,
2013-04-14 07:35:00,49.6,37.1,30.09,SSW,202,0.0,0.0,62,0.00,,,0.00,WUHU21523XXSP,2013-04-14 11:35:00,
2013-04-14 07:40:00,49.5,37.0,30.08,SSW,202,0.0,0.0,62,0.00,,,0.00,WUHU21523XXSP,2013-04-14 11:40:00,
2013-04-14 07:45:00,49.5,36.6,30.08,SSW,202,0.0,0.0,61,0.00,,,0.00,WUHU21523XXSP,2013-04-14 11:45:00,
2013-04-14 07:50:00,49.5,36.6,30.09,SSW,202,0.0,0.0,61,0.00,,,0.00,WUHU21523XXSP,2013-04-14 11:50:00,
2013-04-14 07:55:00,49.6,36.7,30.09,SSW,202,0.0,0.0,61,0.00,,,0.00,WUHU21523XXSP,2013-04-14 11:55:00,
2013-04-14 08:00:00,49.8,36.9,30.09,SSW,202,0.0,0.0,61,0.00,,,0.00,WUHU21523XXSP,2013-04-14 12:00:00,
2013-04-14 08:05:00,50.0,37.1,30.09,SSW,202,0.0,0.0,61,0.00,,,0.00,WUHU21523XXSP,2013-04-14 12:05:00,
2013-04-14 08:10:00,50.2,37.2,30.09,SSW,202,0.0,0.0,61,0.00,,,0.00,WUHU21523XXSP,2013-04-14 12:10:00,
2013-04-14 08:15:00,50.5,37.6,30.09,SSW,202,0.0,0.0,61,0.00,,,0.00,WUHU21523XXSP,2013-04-14 12:15:00,
2013-04-14 08:20:00,50.7,37.3,30.09,SSW,202,0.0,0.0,60,0.00,,,0.00,WUHU21523XXSP,2013-04-14 12:20:00,
2013-04-14 08:25:00,51.1,37.7,30.09,SSW,202,0.0,0.0,60,0.00,,,0.00,WUHU21523XXSP,2013-04-14 12:25:00,
2013-04-14 08:30:00,51.4,37.5,30.09,NNW,337,1.8,1.8,59,0.00,,,0.00,WUHU21523XXSP,2013-04-14 12:30:00,
2013-04-14 08:35:00,52.0,38.0,30.09,NW,315,1.3,1.8,59,0.00,,,0.00,WUHU21523XXSP,2013-04-14 12:35:00,
2013-04-14 08:40:00,52.3,37.9,30.09,NW,315,1.3,1.3,58,0.00,,,0.00,WUHU21523XXSP,2013-04-14 12:40:00,
2013-04-14 08:45:00,52.5,37.6,30.09,NW,315,0.0,1.3,57,0.00,,,0.00,WUHU21523XXSP,2013-04-14 12:45:00,
2013-04-14 08:50:00,53.2,38.3,30.09,NW,315,0.0,0.0,57,0.00,,,0.00,WUHU21523XXSP,2013-04-14 12:50:00,
2013-04-14 08:55:00,53.4,38.5,30.09,NW,315,0.0,0.0,57,0.00,,,0.00,WUHU21523XXSP,2013-04-14 12:55:00,
2013-04-14 09:00:00,53.8,38.9,30.09,WNW,292,1.1,1.1,57,0.00,,,0.00,WUHU21523XXSP,2013-04-14 13:00:00,
2013-04-14 09:05:00,54.5,38.6,30.09,WNW,292,1.3,1.3,55,0.00,,,0.00,WUHU21523XXSP,2013-04-14 13:05:00,
2013-04-14 09:10:00,54.9,38.9,30.09,WNW,292,0.4,1.3,55,0.00,,,0.00,WUHU21523XXSP,2013-04-14 13:10:00,
2013-04-14 09:15:00,55.2,39.2,30.09,WNW,292,0.0,0.4,55,0.00,,,0.00,WUHU21523XXSP,2013-04-14 13:15:00,
2013-04-14 09:20:00,55.9,39.9,30.09,WNW,292,0.0,0.0,55,0.00,,,0.00,WUHU21523XXSP,2013-04-14 13:20:00,
2013-04-14 09:25:00,56.1,39.6,30.09,NW,315,0.0,0.0,54,0.00,,,0.00,WUHU21523XXSP,2013-04-14 13:25:00,
2013-04-14 09:30:00,56.7,40.2,30.09,North,0,0.0,0.0,54,0.00,,,0.00,WUHU21523XXSP,2013-04-14 13:30:00,
2013-04-14 09:35:00,57.4,40.4,30.09,West,277,2.1,3.6,53,0.00,,,0.00,WUHU21523XXSP,2013-04-14 13:35:00,
2013-04-14 09:40:00,57.7,40.3,30.09,North,349,2.6,3.6,52,0.00,,,0.00,WUHU21523XXSP,2013-04-14 13:40:00,
2013-04-14 09:45:00,58.5,40.4,30.09,NW,320,1.4,2.7,51,0.00,,,0.00,WUHU21523XXSP,2013-04-14 13:45:00,
2013-04-14 09:50:00,59.2,40.0,30.09,NNW,337,3.4,3.4,49,0.00,,,0.00,WUHU21523XXSP,2013-04-14 13:50:00,
2013-04-14 10:00:00,60.4,38.3,30.09,NNW,338,4.5,4.9,44,0.00,,,0.00,WUHU21523XXSP,2013-04-14 14:00:00,
2013-04-14 10:05:00,61.2,38.9,30.09,NW,315,4.3,4.9,44,0.00,,,0.00,WUHU21523XXSP,2013-04-14 14:05:00,
2013-04-14 10:10:00,61.5,38.1,30.09,WNW,284,1.0,4.3,42,0.00,,,0.00,WUHU21523XXSP,2013-04-14 14:10:00,
2013-04-14 10:15:00,61.9,38.4,30.09,NW,305,2.7,4.3,42,0.00,,,0.00,WUHU21523XXSP,2013-04-14 14:15:00,
2013-04-14 10:20:00,62.4,38.4,30.09,NNW,334,2.9,4.9,41,0.00,,,0.00,WUHU21523XXSP,2013-04-14 14:20:00,
2013-04-14 10:25:00,62.8,38.1,30.09,NNW,337,4.4,4.9,40,0.00,,,0.00,WUHU21523XXSP,2013-04-14 14:25:00,
2013-04-14 10:30:00,63.3,39.2,30.09,NNW,337,2.9,4.9,41,0.00,,,0.00,WUHU21523XXSP,2013-04-14 14:30:00,
2013-04-14 10:35:00,64.0,38.5,30.09,NW,315,1.6,3.1,39,0.00,,,0.00,WUHU21523XXSP,2013-04-14 14:35:00,
2013-04-14 10:40:00,64.2,38.7,30.09,NNW,345,0.9,3.1,39,0.00,,,0.00,WUHU21523XXSP,2013-04-14 14:40:00,
2013-04-14 10:45:00,64.8,38.4,30.09,NW,315,2.2,4.9,38,0.00,,,0.00,WUHU21523XXSP,2013-04-14 14:45:00,
2013-04-14 10:50:00,65.1,38.8,30.09,NW,315,4.6,6.0,38,0.00,,,0.00,WUHU21523XXSP,2013-04-14 14:50:00,
2013-04-14 10:55:00,65.3,38.9,30.09,North,0,1.6,6.0,38,0.00,,,0.00,WUHU21523XXSP,2013-04-14 14:55:00,
2013-04-14 11:00:00,65.8,39.4,30.09,NW,315,3.5,4.5,38,0.00,,,0.00,WUHU21523XXSP,2013-04-14 15:00:00,
2013-04-14 11:05:00,66.0,39.6,30.09,North,3,3.7,4.7,38,0.00,,,0.00,WUHU21523XXSP,2013-04-14 15:05:00,
2013-04-14 11:10:00,66.6,39.3,30.09,NNW,337,2.0,4.7,37,0.00,,,0.00,WUHU21523XXSP,2013-04-14 15:10:00,
2013-04-14 11:15:00,66.7,40.2,30.09,NNW,337,3.4,4.0,38,0.00,,,0.00,WUHU21523XXSP,2013-04-14 15:15:00,
2013-04-14 11:20:00,67.1,41.3,30.08,North,0,4.7,4.7,39,0.00,,,0.00,WUHU21523XXSP,2013-04-14 15:20:00,
2013-04-14 11:25:00,67.6,41.0,30.08,NNE,13,3.7,4.7,38,0.00,,,0.00,WUHU21523XXSP,2013-04-14 15:25:00,
2013-04-14 11:30:00,68.0,41.3,30.08,North,3,2.0,4.5,38,0.00,,,0.00,WUHU21523XXSP,2013-04-14 15:30:00,
2013-04-14 11:35:00,68.4,41.6,30.08,NE,55,2.8,5.4,38,0.00,,,0.00,WUHU21523XXSP,2013-04-14 15:35:00,
2013-04-14 11:40:00,68.7,41.2,30.08,NNW,337,4.0,5.4,37,0.00,,,0.00,WUHU21523XXSP,2013-04-14 15:40:00,
2013-04-14 11:45:00,69.1,41.6,30.08,NNE,22,3.6,5.4,37,0.00,,,0.00,WUHU21523XXSP,2013-04-14 15:45:00,
2013-04-14 11:50:00,69.3,41.7,30.07,NNW,337,1.6,3.6,37,0.00,,,0.00,WUHU21523XXSP,2013-04-14 15:50:00,
2013-04-14 11:55:00,69.4,41.1,30.07,NNE,22,2.9,3.6,36,0.00,,,0.00,WUHU21523XXSP,2013-04-14 15:55:00,
2013-04-14 12:00:00,69.6,42.0,30.07,NNE,16,1.4,3.8,37,0.00,,,0.00,WUHU21523XXSP,2013-04-14 16:00:00,
2013-04-14 12:05:00,69.8,42.2,30.07,North,0,0.9,3.8,37,0.00,,,0.00,WUHU21523XXSP,2013-04-14 16:05:00,
2013-04-14 12:15:00,70.3,44.2,30.06,ENE,67,0.9,3.1,39,0.00,,,0.00,WUHU21523XXSP,2013-04-14 16:15:00,
2013-04-14 12:20:00,70.9,44.7,30.06,SW,225,1.5,2.2,39,0.00,,,0.00,WUHU21523XXSP,2013-04-14 16:20:00,
2013-04-14 12:25:00,71.2,45.0,30.05,NE,45,0.0,2.2,39,0.00,,,0.00,WUHU21523XXSP,2013-04-14 16:25:00,
2013-04-14 12:30:00,71.6,45.3,30.05,NNW,337,0.0,0.0,39,0.00,,,0.00,WUHU21523XXSP,2013-04-14 16:30:00,
2013-04-14 12:35:00,72.0,44.9,30.05,SW,225,0.0,0.0,38,0.00,,,0.00,WUHU21523XXSP,2013-04-14 16:35:00,
2013-04-14 12:40:00,72.1,45.8,30.05,SE,135,0.0,0.0,39,0.00,,,0.00,WUHU21523XXSP,2013-04-14 16:40:00,
2013-04-14 12:45:00,72.3,45.2,30.05,ENE,67,0.0,2.2,38,0.00,,,0.00,WUHU21523XXSP,2013-04-14 16:45:00,
2013-04-14 12:50:00,72.5,45.4,30.05,NE,45,1.6,2.2,38,0.00,,,0.00,WUHU21523XXSP,2013-04-14 16:50:00,
2013-04-14 12:55:00,72.5,43.9,30.04,NE,35,1.5,1.8,36,0.00,,,0.00,WUHU21523XXSP,2013-04-14 16:55:00,
2013-04-14 13:00:00,72.7,44.8,30.04,NE,45,7.2,7.2,37,0.00,,,0.00,WUHU21523XXSP,2013-04-14 17:00:00,
2013-04-14 13:05:00,73.0,45.1,30.05,South,180,2.8,7.2,37,0.00,,,0.00,WUHU21523XXSP,2013-04-14 17:05:00,
2013-04-14 13:10:00,73.6,45.6,30.04,NE,45,0.0,2.9,37,0.00,,,0.00,WUHU21523XXSP,2013-04-14 17:10:00,
2013-04-14 13:15:00,73.8,44.2,30.04,NE,45,0.0,1.1,34,0.00,,,0.00,WUHU21523XXSP,2013-04-14 17:15:00,
2013-04-14 13:20:00,73.8,44.2,30.04,NE,45,2.3,2.7,35,0.00,,,0.00,WUHU21523XXSP,2013-04-14 17:20:00,
2013-04-14 13:25:00,73.8,44.2,30.04,North,0,0.0,2.7,35,0.00,,,0.00,WUHU21523XXSP,2013-04-14 17:25:00,
2013-04-14 13:30:00,74.1,46.0,30.04,ENE,62,3.8,6.9,37,0.00,,,0.00,WUHU21523XXSP,2013-04-14 17:30:00,
2013-04-14 13:35:00,74.8,46.7,30.04,East,90,5.6,6.9,37,0.00,,,0.00,WUHU21523XXSP,2013-04-14 17:35:00,
2013-04-14 13:40:00,75.0,46.9,30.04,WSW,247,1.3,5.6,37,0.00,,,0.00,WUHU21523XXSP,2013-04-14 17:40:00,
2013-04-14 13:45:00,75.6,46.6,30.04,SSW,193,1.5,2.2,36,0.00,,,0.00,WUHU21523XXSP,2013-04-14 17:45:00,
2013-04-14 13:50:00,75.9,47.7,30.04,WNW,292,0.0,2.2,37,0.00,,,0.00,WUHU21523XXSP,2013-04-14 17:50:00,
2013-04-14 13:55:00,76.3,48.0,30.04,NE,45,2.0,2.0,37,0.00,,,0.00,WUHU21523XXSP,2013-04-14 17:55:00,
2013-04-14 14:00:00,76.6,46.8,30.03,NNE,25,1.7,4.9,35,0.00,,,0.00,WUHU21523XXSP,2013-04-14 18:00:00,
2013-04-14 14:05:00,76.8,47.7,30.03,South,180,5.6,5.6,36,0.00,,,0.00,WUHU21523XXSP,2013-04-14 18:05:00,
2013-04-14 14:10:00,76.8,47.0,30.03,South,180,2.2,5.6,35,0.00,,,0.00,WUHU21523XXSP,2013-04-14 18:10:00,
2013-04-14 14:15:00,76.8,47.0,30.03,East,79,1.5,3.8,35,0.00,,,0.00,WUHU21523XXSP,2013-04-14 18:15:00,
2013-04-14 14:20:00,76.8,47.0,30.03,ENE,67,0.0,3.8,35,0.00,,,0.00,WUHU21523XXSP,2013-04-14 18:20:00,
2013-04-14 14:25:00,76.8,47.0,30.02,SE,135,0.0,1.8,35,0.00,,,0.00,WUHU21523XXSP,2013-04-14 18:25:00,
2013-04-14 14:30:00,77.2,45.0,30.02,WSW,247,6.3,6.3,32,0.00,,,0.00,WUHU21523XXSP,2013-04-14 18:30:00,
2013-04-14 14:35:00,77.2,45.0,30.02,SW,225,0.0,6.3,32,0.00,,,0.00,WUHU21523XXSP,2013-04-14 18:35:00,
2013-04-14 14:40:00,77.4,45.1,30.01,SSW,202,1.6,1.6,32,0.00,,,0.00,WUHU21523XXSP,2013-04-14 18:40:00,
2013-04-14 14:45:00,77.5,44.5,30.01,NE,50,1.5,5.4,31,0.00,,,0.00,WUHU21523XXSP,2013-04-14 18:45:00,
2013-04-14 14:50:00,77.7,45.4,30.01,NNE,22,0.0,7.2,32,0.00,,,0.00,WUHU21523XXSP,2013-04-14 18:50:00,
2013-04-14 14:55:00,77.7,45.4,30.01,ENE,67,6.3,7.2,32,0.00,,,0.00,WUHU21523XXSP,2013-04-14 18:55:00,
2013-04-14 15:00:00,77.7,44.7,30.01,SSW,202,2.2,6.3,31,0.00,,,0.00,WUHU21523XXSP,2013-04-14 19:00:00,
2013-04-14 15:05:00,77.7,44.7,30.00,West,270,2.2,2.2,31,0.00,,,0.00,WUHU21523XXSP,2013-04-14 19:05:00,
2013-04-14 15:10:00,77.9,44.1,30.01,NE,45,3.4,3.4,30,0.00,,,0.00,WUHU21523XXSP,2013-04-14 19:10:00,
2013-04-14 15:15:00,77.9,44.1,30.00,SSW,196,3.4,5.8,30,0.00,,,0.00,WUHU21523XXSP,2013-04-14 19:15:00,
2013-04-14 15:20:00,78.1,45.0,29.99,SSW,202,4.5,5.8,31,0.00,,,0.00,WUHU21523XXSP,2013-04-14 19:20:00,
2013-04-14 15:25:00,78.3,45.1,29.99,NE,45,0.0,11.0,31,0.00,,,0.00,WUHU21523XXSP,2013-04-14 19:25:00,
2013-04-14 15:30:00,78.4,45.2,29.99,SE,130,1.2,11.0,31,0.00,,,0.00,WUHU21523XXSP,2013-04-14 19:30:00,
2013-04-14 15:35:00,78.4,44.5,29.99,WSW,247,2.9,3.4,30,0.00,,,0.00,WUHU21523XXSP,2013-04-14 19:35:00,
2013-04-14 15:40:00,78.6,44.6,29.99,SSW,202,0.4,3.4,30,0.00,,,0.00,WUHU21523XXSP,2013-04-14 19:40:00,
2013-04-14 15:45:00,78.6,43.6,29.99,SSW,208,4.1,7.8,29,0.00,,,0.00,WUHU21523XXSP,2013-04-14 19:45:00,
2013-04-14 15:50:00,78.4,43.4,29.98,SW,225,0.0,7.8,29,0.00,,,0.00,WUHU21523XXSP,2013-04-14 19:50:00,
2013-04-14 15:55:00,78.4,44.5,29.98,West,270,4.0,7.8,30,0.00,,,0.00,WUHU21523XXSP,2013-04-14 19:55:00,
2013-04-14 16:00:00,78.4,44.5,29.98,SW,225,2.0,4.0,30,0.00,,,0.00,WUHU21523XXSP,2013-04-14 20:00:00,
2013-04-14 16:05:00,78.6,44.6,29.98,SSE,151,1.4,6.7,30,0.00,,,0.00,WUHU21523XXSP,2013-04-14 20:05:00,
2013-04-14 16:10:00,78.6,44.6,29.98,SSW,198,2.9,6.7,30,0.00,,,0.00,WUHU21523XXSP,2013-04-14 20:10:00,
2013-04-14 16:15:00,78.6,43.6,29.98,SSW,202,6.9,6.9,29,0.00,,,0.00,WUHU21523XXSP,2013-04-14 20:15:00,
2013-04-14 16:20:00,78.6,44.6,29.99,SSW,202,2.2,6.9,30,0.00,,,0.00,WUHU21523XXSP,2013-04-14 20:20:00,
2013-04-14 16:25:00,78.6,43.6,29.99,SSW,202,0.9,2.2,29,0.00,,,0.00,WUHU21523XXSP,2013-04-14 20:25:00,
2013-04-14 16:30:00,78.6,42.5,29.99,SW,225,3.1,6.9,28,0.00,,,0.00,WUHU21523XXSP,2013-04-14 20:30:00,
2013-04-14 16:35:00,78.4,43.4,29.99,South,180,1.8,6.9,29,0.00,,,0.00,WUHU21523XXSP,2013-04-14 20:35:00,
2013-04-14 16:40:00,78.4,44.5,29.99,SSW,202,1.1,6.9,30,0.00,,,0.00,WUHU21523XXSP,2013-04-14 20:40:00,
2013-04-14 16:45:00,78.4,44.5,29.99,SSW,202,4.5,6.9,30,0.00,,,0.00,WUHU21523XXSP,2013-04-14 20:45:00,
2013-04-14 16:50:00,78.1,43.2,29.99,SW,225,1.1,4.9,29,0.00,,,0.00,WUHU21523XXSP,2013-04-14 20:50:00,
2013-04-14 16:55:00,77.9,43.0,29.99,South,180,3.0,4.7,29,0.00,,,0.00,WUHU21523XXSP,2013-04-14 20:55:00,
2013-04-14 17:00:00,77.7,42.9,29.99,ENE,73,0.7,4.7,29,0.00,,,0.00,WUHU21523XXSP,2013-04-14 21:00:00,
2013-04-14 17:05:00,77.5,42.7,29.98,WSW,247,1.6,3.1,29,0.00,,,0.00,WUHU21523XXSP,2013-04-14 21:05:00,
2013-04-14 17:10:00,77.2,42.4,29.98,SSE,157,0.7,1.6,29,0.00,,,0.00,WUHU21523XXSP,2013-04-14 21:10:00,
2013-04-14 17:15:00,77.0,42.3,29.99,NE,53,1.8,3.8,29,0.00,,,0.00,WUHU21523XXSP,2013-04-14 21:15:00,
2013-04-14 17:20:00,76.8,42.1,29.99,ESE,112,2.7,3.8,29,0.00,,,0.00,WUHU21523XXSP,2013-04-14 21:20:00,
2013-04-14 17:25:00,76.6,42.0,29.99,South,180,0.0,5.8,29,0.00,,,0.00,WUHU21523XXSP,2013-04-14 21:25:00,
2013-04-14 17:30:00,76.5,41.8,29.99,NE,45,9.2,9.2,29,0.00,,,0.00,WUHU21523XXSP,2013-04-14 21:30:00,
2013-04-14 17:35:00,76.3,41.6,29.99,SSW,195,2.8,9.2,29,0.00,,,0.00,WUHU21523XXSP,2013-04-14 21:35:00,
2013-04-14 17:45:00,75.7,41.2,29.99,SSW,202,0.0,8.9,29,0.00,,,0.00,WUHU21523XXSP,2013-04-14 21:45:00,
2013-04-14 17:50:00,75.7,41.2,29.99,SSE,167,6.0,6.7,29,0.00,,,0.00,WUHU21523XXSP,2013-04-14 21:50:00,
2013-04-14 17:55:00,75.4,40.8,29.99,SW,225,0.9,6.7,29,0.00,,,0.00,WUHU21523XXSP,2013-04-14 21:55:00,
2013-04-14 18:00:00,75.4,40.8,29.99,SSW,202,3.8,3.8,29,0.00,,,0.00,WUHU21523XXSP,2013-04-14 22:00:00,
2013-04-14 18:05:00,75.2,41.7,30.00,ENE,67,0.0,3.8,30,0.00,,,0.00,WUHU21523XXSP,2013-04-14 22:05:00,
2013-04-14 18:10:00,75.0,40.5,29.99,NE,45,2.5,6.0,29,0.00,,,0.00,WUHU21523XXSP,2013-04-14 22:10:00,
2013-04-14 18:15:00,74.8,41.4,29.99,SSE,166,1.8,6.0,30,0.00,,,0.00,WUHU21523XXSP,2013-04-14 22:15:00,
2013-04-14 18:20:00,74.8,41.4,30.00,SSE,157,0.0,3.8,30,0.00,,,0.00,WUHU21523XXSP,2013-04-14 22:20:00,
2013-04-14 18:25:00,74.7,41.2,30.00,SSW,202,0.0,1.8,30,0.00,,,0.00,WUHU21523XXSP,2013-04-14 22:25:00,
2013-04-14 18:30:00,74.5,41.1,30.00,SSW,202,4.5,4.5,30,0.00,,,0.00,WUHU21523XXSP,2013-04-14 22:30:00,
2013-04-14 18:35:00,74.3,40.9,30.00,East,101,0.6,4.5,30,0.00,,,0.00,WUHU21523XXSP,2013-04-14 22:35:00,
2013-04-14 18:40:00,74.1,40.7,30.00,SSW,202,10.3,10.3,30,0.00,,,0.00,WUHU21523XXSP,2013-04-14 22:40:00,
2013-04-14 18:45:00,73.9,40.6,30.00,SSW,192,4.9,10.3,30,0.00,,,0.00,WUHU21523XXSP,2013-04-14 22:45:00,
2013-04-14 18:50:00,73.9,40.6,30.00,East,90,1.8,10.3,30,0.00,,,0.00,WUHU21523XXSP,2013-04-14 22:50:00,
2013-04-14 18:55:00,73.6,40.3,29.99,South,180,0.0,1.8,30,0.00,,,0.00,WUHU21523XXSP,2013-04-14 22:55:00,
2013-04-14 19:00:00,73.4,40.1,29.99,SE,135,0.0,0.0,30,0.00,,,0.00,WUHU21523XXSP,2013-04-14 23:00:00,
2013-04-14 19:05:00,73.2,40.0,29.99,SSW,202,2.7,2.7,30,0.00,,,0.00,WUHU21523XXSP,2013-04-14 23:05:00,
2013-04-14 19:10:00,73.2,40.0,30.00,ENE,67,0.0,4.0,30,0.00,,,0.00,WUHU21523XXSP,2013-04-14 23:10:00,
2013-04-14 19:15:00,73.0,39.8,29.99,ENE,67,0.0,4.0,30,0.00,,,0.00,WUHU21523XXSP,2013-04-14 23:15:00,
2013-04-14 19:20:00,72.9,40.4,29.99,SSE,157,0.0,0.0,31,0.00,,,0.00,WUHU21523XXSP,2013-04-14 23:20:00,
2013-04-14 19:25:00,72.5,40.1,29.99,SW,225,0.0,3.4,31,0.00,,,0.00,WUHU21523XXSP,2013-04-14 23:25:00,
2013-04-14 19:35:00,72.3,40.0,29.99,South,191,0.7,6.5,31,0.00,,,0.00,WUHU21523XXSP,2013-04-14 23:35:00,
2013-04-14 19:40:00,72.1,39.8,29.99,WSW,247,0.0,7.8,31,0.00,,,0.00,WUHU21523XXSP,2013-04-14 23:40:00,
2013-04-14 19:45:00,72.1,39.8,29.99,SSE,157,0.0,7.8,31,0.00,,,0.00,WUHU21523XXSP,2013-04-14 23:45:00,
2013-04-14 19:50:00,72.0,39.7,29.99,South,180,0.4,0.4,31,0.00,,,0.00,WUHU21523XXSP,2013-04-14 23:50:00,
2013-04-14 19:55:00,71.8,39.5,29.99,ESE,112,0.0,0.4,31,0.00,,,0.00,WUHU21523XXSP,2013-04-14 23:55:00,
2013-04-14 20:00:00,71.6,39.4,30.00,SE,135,2.0,2.0,31,0.00,,,0.00,WUHU21523XXSP,2013-04-15 00:00:00,
2013-04-14 20:05:00,71.4,39.2,29.99,South,180,0.0,2.0,31,0.00,,,0.00,WUHU21523XXSP,2013-04-15 00:05:00,
2013-04-14 20:15:00,70.9,40.2,29.99,South,180,0.0,0.0,33,0.00,,,0.00,WUHU21523XXSP,2013-04-15 00:15:00,
2013-04-14 20:20:00,70.9,39.5,29.99,SSE,157,0.0,0.0,32,0.00,,,0.00,WUHU21523XXSP,2013-04-15 00:20:00,
2013-04-14 20:25:00,70.9,40.2,29.99,South,180,0.0,0.0,33,0.00,,,0.00,WUHU21523XXSP,2013-04-15 00:25:00,
2013-04-14 20:35:00,70.5,39.9,29.99,South,180,0.0,0.0,33,0.00,,,0.00,WUHU21523XXSP,2013-04-15 00:35:00,
2013-04-14 20:40:00,70.3,39.7,29.99,South,180,0.0,0.0,33,0.00,,,0.00,WUHU21523XXSP,2013-04-15 00:40:00,
2013-04-14 20:45:00,70.3,39.7,29.99,SSE,157,0.0,0.0,33,0.00,,,0.00,WUHU21523XXSP,2013-04-15 00:45:00,
2013-04-14 20:50:00,70.2,39.6,29.99,SSE,157,0.0,0.0,33,0.00,,,0.00,WUHU21523XXSP,2013-04-15 00:50:00,
2013-04-14 21:00:00,69.6,39.8,30.00,SSE,157,27.3,27.3,34,0.00,,,0.00,WUHU21523XXSP,2013-04-15 01:00:00,
2013-04-14 21:05:00,69.6,39.8,30.00,South,180,0.0,27.3,34,0.00,,,0.00,WUHU21523XXSP,2013-04-15 01:05:00,
2013-04-14 21:10:00,69.6,39.8,30.00,South,180,0.0,27.3,34,0.00,,,0.00,WUHU21523XXSP,2013-04-15 01:10:00,
2013-04-14 21:15:00,69.6,39.8,30.00,South,180,2.9,2.9,34,0.00,,,0.00,WUHU21523XXSP,2013-04-15 01:15:00,
2013-04-14 21:20:00,69.4,39.7,30.00,South,180,0.0,2.9,34,0.00,,,0.00,WUHU21523XXSP,2013-04-15 01:20:00,
2013-04-14 21:25:00,69.4,39.7,30.00,SSW,202,3.4,3.4,34,0.00,,,0.00,WUHU21523XXSP,2013-04-15 01:25:00,
2013-04-14 21:30:00,69.4,39.7,30.00,ENE,67,0.7,3.4,34,0.00,,,0.00,WUHU21523XXSP,2013-04-15 01:30:00,
2013-04-14 21:35:00,69.3,39.5,30.00,NNW,337,0.0,0.7,34,0.00,,,0.00,WUHU21523XXSP,2013-04-15 01:35:00,
2013-04-14 21:40:00,69.3,39.5,30.00,NNW,337,0.0,0.0,34,0.00,,,0.00,WUHU21523XXSP,2013-04-15 01:40:00,
2013-04-14 21:45:00,69.1,39.3,30.00,South,180,0.0,0.0,34,0.00,,,0.00,WUHU21523XXSP,2013-04-15 01:45:00,
2013-04-14 21:50:00,69.1,40.1,30.00,SSE,157,0.0,0.0,35,0.00,,,0.00,WUHU21523XXSP,2013-04-15 01:50:00,
2013-04-14 21:55:00,68.9,39.9,30.01,ESE,112,0.0,0.0,35,0.00,,,0.00,WUHU21523XXSP,2013-04-15 01:55:00,
2013-04-14 22:00:00,68.7,39.8,30.00,ENE,67,0.9,0.9,35,0.00,,,0.00,WUHU21523XXSP,2013-04-15 02:00:00,
2013-04-14 22:05:00,68.9,39.9,30.00,SSW,202,0.9,0.9,35,0.00,,,0.00,WUHU21523XXSP,2013-04-15 02:05:00,
2013-04-14 22:10:00,68.7,39.8,30.00,South,180,0.0,0.9,35,0.00,,,0.00,WUHU21523XXSP,2013-04-15 02:10:00,
2013-04-14 22:15:00,68.7,39.8,30.00,South,180,0.0,0.9,35,0.00,,,0.00,WUHU21523XXSP,2013-04-15 02:15:00,
2013-04-14 22:20:00,68.7,40.5,30.00,South,180,0.0,0.9,36,0.00,,,0.00,WUHU21523XXSP,2013-04-15 02:20:00,
2013-04-14 22:25:00,68.5,40.3,30.00,SSE,157,25.3,25.3,36,0.00,,,0.00,WUHU21523XXSP,2013-04-15 02:25:00,
2013-04-14 22:30:00,68.5,40.3,30.01,SSE,157,0.7,25.3,36,0.00,,,0.00,WUHU21523XXSP,2013-04-15 02:30:00,
2013-04-14 22:35:00,68.4,40.2,30.01,SSE,157,27.1,27.1,36,0.00,,,0.00,WUHU21523XXSP,2013-04-15 02:35:00,
2013-04-14 22:40:00,68.4,40.9,30.01,SSE,157,0.0,27.1,37,0.00,,,0.00,WUHU21523XXSP,2013-04-15 02:40:00,
2013-04-14 22:45:00,68.2,40.7,30.01,ESE,112,0.0,27.1,37,0.00,,,0.00,WUHU21523XXSP,2013-04-15 02:45:00,
2013-04-14 22:50:00,68.2,40.7,30.01,SSW,202,0.0,0.0,37,0.00,,,0.00,WUHU21523XXSP,2013-04-15 02:50:00,
2013-04-14 22:55:00,68.2,40.7,30.01,SE,135,0.0,0.0,37,0.00,,,0.00,WUHU21523XXSP,2013-04-15 02:55:00,
2013-04-14 23:00:00,68.0,40.6,30.01,South,180,0.0,0.0,37,0.00,,,0.00,WUHU21523XXSP,2013-04-15 03:00:00,
2013-04-14 23:05:00,67.8,41.2,30.01,SSW,202,0.0,0.0,38,0.00,,,0.00,WUHU21523XXSP,2013-04-15 03:05:00,
2013-04-14 23:10:00,67.8,41.2,30.01,SSE,157,0.0,0.0,38,0.00,,,0.00,WUHU21523XXSP,2013-04-15 03:10:00,
2013-04-14 23:15:00,67.8,41.2,30.01,SSW,202,24.6,24.6,38,0.00,,,0.00,WUHU21523XXSP,2013-04-15 03:15:00,
2013-04-14 23:20:00,67.8,41.9,30.01,East,90,1.1,24.6,39,0.00,,,0.00,WUHU21523XXSP,2013-04-15 03:20:00,
2013-04-14 23:25:00,67.8,41.9,30.02,SW,225,0.0,1.3,39,0.00,,,0.00,WUHU21523XXSP,2013-04-15 03:25:00,
2013-04-14 23:30:00,67.8,43.2,30.02,SE,135,0.0,1.3,41,0.00,,,0.00,WUHU21523XXSP,2013-04-15 03:30:00,
2013-04-14 23:35:00,67.8,43.2,30.02,SSE,157,0.3,0.4,41,0.00,,,0.00,WUHU21523XXSP,2013-04-15 03:35:00,
2013-04-14 23:40:00,67.6,43.7,30.03,NE,45,0.0,3.8,42,0.00,,,0.00,WUHU21523XXSP,2013-04-15 03:40:00,
2013-04-14 23:45:00,67.6,44.3,30.03,SE,135,1.3,3.8,43,0.00,,,0.00,WUHU21523XXSP,2013-04-15 03:45:00,
2013-04-14 23:50:00,67.6,44.3,30.03,NNE,22,1.3,2.2,43,0.00,,,0.00,WUHU21523XXSP,2013-04-15 03:50:00,
2013-04-14 23:55:00,67.6,44.9,30.03,NNE,28,11.0,19.5,44,0.00,,,0.00,WUHU21523XXSP,2013-04-15 03:55:00,